SCP
0 0 0 0 0 0 -0 -0 0 0 0 0 0 0 0 0 0 0 0 0 0 0 0 0 0 0 0 0 0 0 0 0 0 0 0 0 0 0 0 0 0 0 0
0 0 0 0 0 0 -0 0 0 0 0 0 0 0 0 0 0 0 0 0 0 0 0 0 0 0 0 0 0 0 0 0 0 0 0 0 0 0 0 0 0 0 0
0 0 0 0 0 0 -0 0 0 0 0 0 0 0 0 0 0 0 0 0 0 0 0 0 0 0 0 0 0 0 0 0 0 0 0 0 0 0 0 0 0 0 0
0 0 0 -0 -0 0 0 0 0 0 0 0 0 0 0 0 0 0 0 0 0 0 0 0 0 0 0 0 0 0 0 0 0 0 0 0 0 0 0 0 0 0 0
0 0 0 0 0 0 0 0 0 0 0 0 0 0 0 0 0 0 0 0 0 0 0 0 0 0 0 0 0 0 0 0 0 0 0 0 0 0 0 0 0 0 0
-0 0 0 0 0 0 0 0 0 0 0 0 0 0 0 0 0 0 0 0 0 0 0 0 0 0 0 0 0 0 0 0 0 0 0 0 0 0 0 0 0 0 0
0 0 0 0 0 0 0 0 0 0 0 0 0 0 0 0 0 0 0 0 0 -0 0 0 0 0 0 0 0 0 0 0 0 0 0 0 0 0 0 0 0 0 0
0 0 0 0 0 0 0 0 0 0 0 0 0 0 0 0 0 0 0 -0 -0 -0 0 0 0 0 0 0 0 0 0 0 0 0 0 0 0 0 0 0 0 0 0
0 0 0 0 0 0 0 0 0 0 0 0 0 0 0 0 0 0 0 0 0 0 0 0 0 0 0 0 0 0 0 0 0 0 0 0 0 0 0 0 0 0 0
0 0 0 0 0 0 0 0 0 0 0 0 0 0 0 0 0 0 0 0 0 0 0 0 0 0 0 0 0 0 0 0 0 0 0 0 0 0 0 0 0 0 0
0 0 0 0 0 0 0 0 0 0 0 0 0 0 0 0 0 0 0 0 0 0 0 0 0 0 0 0 0 0 0 0 0 0 0 0 0 0 0 0 0 0 0
0 0 0 0 0 0 0 0 0 0 0 0 0 0 0 0 0 0 0 0 0 0 0 0 0 0 0 0 0 0 0 0 0 0 0 0 0 0 0 0 0 0 0
0 0 0 0 0 0 0 0 0 0 0 0 0 0 0 0 0 0 0 0 0 0 0 0 0 0 0 0 0 0 0 0 0 0 0 0 0 0 0 0 0 0 0
0 0 0 0 0 0 0 0 0 0 0 0 0 0 0 0 0 0 0 0 0 0 0 0 0 0 0 0 0 0 0 0 0 0 0 0 0 0 0 0 0 0 0
0 0 0 0 0 0 0 0 0 0 0 0 0 0 0 0 0 0 0 0 0 0 0 0 0 0 0 0 0 0 0 0 0 0 0 0 0 0 0 0 0 0 0
0 0 0 0 0 0 0 0 0 0 0 0 0 0 0 0 0 0 0 0 0 0 0 0 0 0 0 0 0 0 0 0 0 0 0 0 0 0 0 0 0 0 0
0 0 0 0 0 0 0 0 0 0 0 0 0 0 0 0 0 0 0 0 0 0 0 0 0 0 0 0 0 0 0 0 0 0 0 0 0 0 0 0 0 0 0
0 0 0 0 0 0 0 0 0 0 0 0 0 0 0 0 0 0 0 0 0 0 0 0 0 0 0 0 0 0 0 0 0 0 0 0 0 0 0 0 0 0 0
0 0 0 0 0 0 0 0 0 0 0 0 0 0 0 0 0 0 0 0 0 0 0 0 0 0 0 0 0 0 0 0 0 0 0 0 0 0 0 0 0 0 0
0 0 0 0 0 0 0 0 0 0 0 0 0 0 0 0 0 0 0 0 0 0 0 0 0 0 0 0 0 0 0 0 0 0 0 0 0 0 0 0 0 0 0
0 0 0 0 0 0 0 0 0 0 0 0 0 0 0 0 0 0 0 0 0 0 0 0 0 0 0 0 0 0 0 0 0 0 0 0 0 0 0 0 0 0 0
0 0 0 0 0 0 0 0 0 0 0 0 0 0 0 0 0 0 0 0 0 0 0 0 0 0 0 0 0 0 0 0 0 0 0 0 0 0 0 0 0 0 0
0 0 0 0 0 0 0 0 0 0 0 0 0 0 0 0 0 0 0 0 0 0 0 0 0 0 0 0 0 0 0 0 0 0 0 0 0 0 0 0 0 0 0
0 0 0 0 0 0 0 0 0 0 0 0 0 0 0 0 0 0 0 0 0 0 0 0 0 0 0 0 0 0 0 0 0 0 0 0 0 0 0 0 0 0 0
0 0 0 0 0 0 0 0 0 0 0 0 0 0 0 0 0 0 0 0 0 0 0 0 0 0 0 0 0 0 0 0 0 0 0 0 0 0 0 0 0 0 0
0 0 0 0 0 0 0 0 0 0 0 0 0 0 0 0 0 0 0 0 0 0 0 0 0 0 0 0 0 0 0 0 0 0 0 0 0 0 0 0 0 0 0
Wind_Speed
10 12 14 14 16 16 16 16 17 17 14 11 12 12 12 10 9 7 9 11 12 13 11 9 10 10 9 10 8 8 8 6 3 3 5 5 5 5 5 5 5 5 5
13 14 16 16 18 18 16 16 15 13 12 11 13 11 10 10 10 9 10 11 13 13 11 11 10 10 10 11 8 8 7 5 4 4 2 3 4 4 4 4 5 5 4
10 12 14 15 18 19 18 15 15 14 13 14 12 11 11 10 9 11 11 13 13 12 12 12 10 10 10 9 9 8 9 8 6 6 5 4 5 1 2 2 3 4 4
9 11 14 15 17 17 16 15 15 13 14 15 14 16 13 13 13 12 12 13 13 12 12 12 12 10 9 8 9 9 8 9 8 5 5 4 3 3 2 2 2 3 4
8 11 12 13 15 14 14 16 16 14 14 14 14 13 12 12 12 12 13 12 12 12 11 11 11 10 9 9 10 10 10 9 9 7 4 2 2 3 3 3 2 2 2
9 11 10 11 13 13 15 16 16 16 14 15 15 14 14 13 13 14 12 11 10 10 12 14 12 12 12 12 11 11 12 11 10 8 6 5 5 5 4 3 3 3 3
8 10 10 13 13 13 16 16 17 17 14 15 15 14 14 13 13 12 11 12 10 10 13 15 14 14 14 14 12 11 12 12 13 8 6 7 7 4 5 5 3 2 2
7 9 9 13 14 13 15 16 16 16 15 15 15 14 13 11 11 12 12 11 10 11 14 15 16 16 16 15 13 11 11 11 12 11 5 6 8 4 4 6 6 2 1
8 8 9 13 14 13 14 16 16 16 15 14 14 13 12 11 12 14 13 10 11 12 14 15 16 16 16 16 14 11 12 11 11 10 8 6 7 5 4 4 5 6 4
8 8 8 11 13 12 12 14 15 15 15 13 12 11 12 12 13 13 13 13 14 15 15 16 17 17 17 16 15 12 11 10 9 6 5 4 4 4 3 4 4 4 5
10 7 8 10 11 11 11 14 14 14 14 14 13 13 13 13 13 13 14 15 15 15 16 16 17 16 16 15 13 13 12 11 6 1 3 3 0 1 1 3 4 3 4
9 6 6 9 10 11 10 12 12 12 13 13 13 13 13 14 14 14 15 15 15 15 16 16 16 16 15 15 14 12 10 8 3 4 5 7 6 4 3 1 4 5 4
10 6 6 8 9 10 9 10 10 11 12 12 12 12 13 14 14 15 15 16 16 16 16 15 16 17 15 14 16 16 12 8 4 2 3 3 3 3 2 3 3 2 3
10 9 9 8 9 10 10 10 10 10 11 12 12 12 13 14 14 14 15 15 16 16 16 14 14 16 15 11 14 16 15 12 11 9 7 5 1 1 3 3 2 1 2
11 10 10 10 10 10 11 11 11 10 11 12 12 12 13 13 13 14 15 14 14 15 16 14 13 14 14 11 13 12 13 13 12 10 8 8 12 10 5 3 1 1 1
11 11 11 11 11 11 12 12 11 11 11 12 12 13 13 13 13 14 15 14 14 15 15 15 13 13 12 19 20 13 9 10 10 10 10 10 13 15 17 18 15 12 6
11 11 11 10 9 9 11 11 12 12 11 12 12 13 13 14 14 13 14 14 14 14 14 14 13 13 14 23 20 15 7 8 9 9 9 8 10 12 13 19 21 21 21
8 9 8 10 8 8 9 10 11 10 11 11 12 12 13 13 14 13 13 13 12 11 11 12 13 13 15 25 22 12 6 7 8 8 7 7 8 9 12 11 11 13 14
5 6 6 7 8 8 9 10 10 10 11 11 12 12 12 13 13 13 13 13 12 11 11 10 11 12 14 23 24 11 4 4 6 7 6 7 7 15 16 12 12 12 13
6 6 6 7 7 8 9 9 10 11 11 12 13 12 12 12 11 12 12 12 12 12 12 11 10 13 13 20 23 14 4 6 6 7 8 12 15 20 20 12 11 11 10
6 7 7 7 7 8 8 9 10 10 12 12 12 12 12 11 10 11 10 11 11 11 11 11 11 11 13 16 21 19 7 5 5 6 7 8 19 22 22 16 10 10 9
8 7 7 8 8 7 8 10 11 12 12 12 12 12 12 11 9 9 10 10 10 9 9 9 10 10 12 16 20 19 14 8 4 4 4 8 20 22 20 15 16 16 12
8 7 7 9 8 7 8 10 13 12 12 12 13 12 12 11 8 8 8 8 8 8 8 8 8 9 10 12 19 18 18 15 5 1 6 13 17 17 14 18 19 14 8
8 8 9 9 10 9 10 11 12 12 12 13 13 13 12 12 8 7 7 7 7 8 8 6 7 8 9 9 8 7 8 13 6 5 10 14 13 13 12 11 10 7 7
8 8 8 10 11 11 12 12 12 12 12 14 14 12 11 11 10 8 8 8 8 10 10 7 6 7 9 14 15 11 9 11 8 8 6 5 6 6 6 6 6 6 6
8 9 10 10 12 12 13 13 13 12 12 13 12 12 11 10 10 10 10 14 15 18 19 16 12 9 14 20 16 16 17 15 14 8 6 6 6 6 6 5 5 6 6
Wind_Direction
343 354 356 353 350 351 352 353 349 349 348 353 345 339 334 328 326 321 332 329 331 331 330 329 324 322 315 311 308 303 286 268 233 239 262 253 237 230 225 224 222 221 219
347 354 354 354 354 351 349 352 348 347 351 357 337 330 323 322 325 329 328 331 333 330 331 330 323 321 317 313 317 315 300 273 214 215 226 279 283 251 231 219 216 222 212
338 348 350 356 355 350 346 342 342 347 353 358 339 334 330 328 331 333 333 335 334 336 331 327 326 321 313 312 317 311 307 293 272 219 202 202 230 266 266 222 221 226 222
338 348 351 356 355 344 337 335 339 346 356 355 346 342 343 341 341 336 333 330 330 328 329 328 324 316 310 310 310 312 307 294 282 263 230 222 197 193 228 263 238 234 233
344 347 348 355 347 340 345 346 344 347 357 354 344 340 339 340 336 333 331 327 325 328 328 324 315 308 308 309 307 307 299 290 279 266 248 214 241 235 183 213 238 257 248
342 343 343 351 344 348 354 344 340 342 349 351 341 342 340 339 334 333 332 327 327 328 330 328 323 319 316 310 304 297 291 287 274 259 244 222 201 202 180 178 204 225 250
333 336 342 349 348 355 356 346 339 339 350 352 341 339 341 337 332 330 326 317 322 325 329 329 327 320 312 305 298 292 286 282 269 252 247 249 234 196 173 160 163 204 255
327 332 347 350 348 355 354 347 342 341 347 348 339 337 343 339 334 326 315 309 316 322 325 324 314 309 305 298 292 286 278 275 266 252 246 269 252 222 186 160 141 139 264
330 337 356 355 351 353 353 342 339 337 339 341 335 334 337 337 331 321 313 314 321 320 322 316 311 306 300 292 284 282 276 273 268 251 224 230 253 233 207 150 142 145 167
339 351 3 355 352 348 350 339 336 334 334 337 334 332 330 330 328 324 321 322 324 324 323 319 314 309 304 299 288 279 276 271 268 243 207 188 225 223 221 150 131 134 141
346 353 1 353 346 346 353 342 338 337 338 337 334 333 331 332 331 328 325 324 321 320 321 322 319 321 322 317 306 287 265 258 234 135 26 36 288 130 182 135 135 130 125
337 344 357 347 341 343 351 344 339 338 337 334 333 333 332 332 332 329 326 323 320 320 322 325 327 329 335 343 343 333 312 280 232 90 55 28 7 21 7 251 158 139 141
333 343 353 341 336 336 341 339 337 336 336 334 333 332 332 332 330 328 327 326 325 323 325 330 335 335 340 358 2 360 356 346 353 45 96 52 1 321 36 17 23 68 116
332 343 347 339 334 334 337 336 334 334 335 334 332 331 331 330 327 327 329 329 328 327 326 333 339 337 336 1 15 6 5 5 21 18 28 21 57 182 75 55 34 16 118
337 345 344 341 337 337 339 336 335 333 334 333 332 331 329 327 327 329 333 332 332 331 331 330 342 343 338 354 28 13 3 359 15 11 22 25 30 44 87 108 91 93 138
339 347 342 340 338 340 339 334 330 329 332 330 328 328 329 329 330 331 334 334 335 335 335 334 340 343 336 353 25 28 6 357 9 12 16 20 24 34 50 66 69 66 62
341 340 337 336 332 337 335 330 326 327 330 329 326 326 327 329 331 334 336 334 334 336 337 335 337 338 338 352 8 29 17 14 17 16 16 23 26 34 40 47 49 53 55
334 327 330 328 323 327 329 325 322 324 328 328 326 326 328 328 330 335 337 333 332 333 334 332 336 336 344 349 3 32 26 29 24 19 24 32 31 52 57 50 43 42 44
315 312 315 311 316 321 326 325 322 325 327 329 328 327 328 329 332 338 335 335 334 335 336 335 336 339 345 349 354 25 16 18 15 9 20 64 50 61 61 54 47 42 38
316 311 314 314 316 318 322 323 322 322 325 328 327 325 326 327 331 336 330 332 334 338 337 338 343 343 343 347 355 28 15 23 17 8 12 46 65 66 64 57 53 48 46
317 321 319 315 313 313 319 319 318 316 319 321 322 322 323 321 332 333 326 327 329 333 334 341 345 343 342 344 352 7 33 44 42 25 14 37 69 62 57 55 57 64 59
325 322 318 316 312 311 316 315 311 312 314 316 315 316 316 315 321 324 321 324 325 328 328 340 345 342 340 341 345 0 23 49 67 55 32 54 65 62 58 55 53 54 52
323 320 315 312 311 311 312 307 304 308 311 312 309 306 306 307 305 315 315 318 321 323 321 340 343 335 334 333 338 358 16 8 18 339 117 86 70 61 52 51 52 48 43
329 328 322 316 313 314 309 303 301 305 308 307 306 304 302 305 302 303 302 305 306 308 311 332 331 325 324 323 333 357 354 0 9 59 82 75 69 67 58 53 50 45 50
330 327 320 313 309 311 309 307 306 306 303 304 305 304 303 300 293 290 292 295 295 296 312 320 316 315 317 317 342 360 1 14 33 84 71 60 61 58 59 58 53 51 48
325 322 317 311 310 312 309 307 306 304 301 302 304 304 305 304 304 302 295 291 299 313 320 319 317 316 319 326 348 9 0 25 43 51 46 46 46 50 47 47 49 47 49